Lid_Strength_Index
1 1 1 1 1 1 1 1 -0 -0 -0 -0 -0 -0 -0 0 0 0 1 1 1 1
1 1 1 1 0 1 0 0 0 -0 0 -0 -0 -0 -0 0 0 0 0 1 1 1
1 1 1 1 1 1 0 0 0 0 0 0 -0 -0 -0 0 -0 0 0 1 1 1
1 1 0 1 0 0 0 0 0 0 0 0 0 -0 0 0 0 1 1 1 1 1
1 1 1 1 1 0 0 0 0 0 0 0 0 0 0 1 1 1 1 1 1 2
1 1 1 1 0 0 0 0 0 0 1 1 0 0 0 0 1 1 1 1 1 1
1 1 1 1 0 0 0 0 0 0 0 0 0 0 0 0 1 1 0 0 1 1
1 1 1 1 1 0 0 0 0 0 0 0 0 0 0 0 1 1 1 0 0 1
1 1 1 1 1 1 1 1 0 1 1 1 1 8 5 2 1 1 1 1 1 0
1 1 1 1 1 1 1 1 1 1 1 1 2 9 8 5 0 1 1 1 1 1
1 2 1 1 1 1 1 1 1 1 1 1 2 10 9 6 0 0 1 1 1 1
1 2 1 2 1 1 1 1 1 1 1 2 1 9 8 4 0 1 1 1 0 1
1 1 2 1 1 1 1 1 1 1 1 4 1 9 9 4 1 2 2 1 1 6
1 1 1 1 1 1 1 1 1 1 1 1 1 2 9 7 1 1 2 2 2 3